CUTE-1 (CO-55) 1 27844U 03031E 26106.28836476 .00000193 00000+0 10234-3 0 9996 2 27844 98.6764 115.6217 0009738 12.8903 347.2523 14.24296578182869 CUBESAT XI-IV (CO-57) 1 27848U 03031J 26105.96475548 .00000153 00000+0 86362-4 0 9995 2 27848 98.6796 115.0646 0010042 31.3577 328.8198 14.23586939182529 CUBESAT XI-V 1 28895U 05043F 26106.16021387 .00000862 00000+0 14405-3 0 9999 2 28895 98.2908 260.5119 0014873 46.5523 313.6919 14.72466487 92622 CUTE-1.7+APD II (CO-65) 1 32785U 08021C 26106.25438213 .00002455 00000+0 16008-3 0 9992 2 32785 97.8246 86.4279 0007394 232.2641 127.7917 15.08862338975854 CANX-2 1 32790U 08021H 26106.20561093 .00002327 00000+0 16772-3 0 9992 2 32790 97.8612 84.8162 0008668 250.5488 109.4801 15.05176267975481 SEEDS II (CO-66) 1 32791U 08021J 26106.20215578 .00010111 00000+0 34402-3 0 9997 2 32791 97.7523 101.2482 0004273 135.1115 225.0471 15.30635483977808 SWISSCUBE 1 35932U 09051B 26106.17986767 .00000619 00000+0 13234-3 0 9994 2 35932 98.4072 12.9838 0007892 52.0864 308.1049 14.62358739880094 BEESAT-1 1 35933U 09051C 26105.47286368 .00000476 00000+0 10571-3 0 9999 2 35933 98.4001 12.0297 0006522 67.0090 293.1798 14.61615668880026 ITUPSAT1 1 35935U 09051E 26106.23124338 .00000480 00000+0 10943-3 0 9992 2 35935 98.4088 12.0566 0008762 73.2360 286.9800 14.60344846879690 TISAT 1 1 36799U 10035E 26106.26773929 .00010687 00000+0 37812-3 0 9998 2 36799 98.0679 47.4608 0004748 98.0958 262.0820 15.29355017858230 AEROCUBE 4.5A 1 38767U 12048K 26105.76284805 .00093514 00000+0 73740-3 0 9995 2 38767 64.6326 250.2241 0030074 211.4658 148.4694 15.70306258362797 STRAND-1 1 39090U 13009E 26106.02223535 .00000168 00000+0 70763-4 0 9992 2 39090 98.3910 287.7900 0009680 61.3406 298.8753 14.37125825688135 BRITE-AUSTRIA 1 39091U 13009F 26106.21749465 .00000106 00000+0 50698-4 0 9996 2 39091 98.3981 287.1905 0011301 68.1541 292.0847 14.36516791688158 NEE-01 PEGASO 1 39151U 13018B 26105.35460483 .00001349 00000+0 13433-3 0 9992 2 39151 98.1123 247.4758 0012860 17.3654 342.8002 14.93354268701322 POPACS 2 1 39269U 13055E 26106.28019615 .00010070 00000+0 17143-3 0 9996 2 39269 80.9941 214.9697 0423805 32.7079 329.9624 14.89610053653994 POPACS 3 1 39270U 13055F 26106.24142484 .00004131 00000+0 10025-3 0 9998 2 39270 80.9997 296.2921 0555842 258.4611 95.3706 14.54702341629549 ZACUBE-1 (TSHEPISOSAT) 1 39417U 13066B 26105.87420362 .00002122 00000+0 16912-3 0 9994 2 39417 97.8129 67.8801 0044912 99.9908 260.6388 15.00670787671385 WNISAT-1 1 39423U 13066H 26105.69228115 .00000444 00000+0 88857-4 0 9996 2 39423 97.7114 259.3164 0164565 68.9971 292.8747 14.57985911657624 TRITON-1 1 39427U 13066M 26106.29642883 .00000905 00000+0 11426-3 0 9998 2 39427 97.8281 17.5186 0092048 76.1902 284.9533 14.81398777664924 GOMX-1 1 39430U 13066Q 26106.28320743 .00000735 00000+0 11827-3 0 9995 2 39430 97.6538 310.6415 0127549 276.5082 82.1616 14.69234280660822 CUBEBUG-2 (LO-74) 1 39440U 13066AA 26106.29181969 .00001384 00000+0 13379-3 0 9997 2 39440 97.8866 55.0491 0056658 231.7441 127.8672 14.93340138667752 NEE-02 KRYSAOR 1 39441U 13066AB 26106.28060328 .00001188 00000+0 13619-3 0 9991 2 39441 97.8860 45.9617 0064823 272.9124 86.4674 14.86398467667003 FUNCUBE-1 (AO-73) 1 39444U 13066AE 26105.85963904 .00005338 00000+0 33985-3 0 9997 2 39444 97.8233 76.0625 0038548 57.5687 302.9260 15.08594905670269 UWE-3 1 39446U 13066AG 26106.10991506 .00001363 00000+0 12235-3 0 9996 2 39446 97.8661 61.8122 0049673 164.5703 195.7047 14.96536857668298 BRITE-CA1 (TORONTO) 1 40020U 14033L 26106.27453882 .00000660 00000+0 10664-3 0 9992 2 40020 97.9637 236.3819 0080018 114.8299 246.1257 14.72579592633103 DUCHIFAT-1 1 40021U 14033M 26106.08756471 .00040778 00000+0 61248-3 0 9990 2 40021 98.0557 157.0610 0003160 278.7348 81.3546 15.54780091646072 NANOSATC-BR1 1 40024U 14033Q 26106.28892183 .00009200 00000+0 32437-3 0 9999 2 40024 98.0782 133.2740 0004696 61.8009 298.3703 15.29520841644514 QB50P1 1 40025U 14033R 26106.24379247 .00004994 00000+0 25423-3 0 9999 2 40025 98.0995 113.0894 0010707 81.1675 279.0769 15.17277583643630 QB50P2 1 40032U 14033Y 26105.93841952 .00004162 00000+0 23096-3 0 9990 2 40032 98.0749 98.9887 0008525 39.2275 320.9572 15.14340229643243 PERSEUS-M2 1 40037U 14033AD 26106.30295319 .00000209 00000+0 24435-4 0 9994 2 40037 97.9915 55.6131 0012521 138.2682 221.9495 14.95315924641532 PERSEUS-M1 1 40039U 14033AF 26106.28061801 .00000630 00000+0 62409-4 0 9991 2 40039 97.9602 49.4242 0012480 137.1847 223.0347 14.95423487641382 POLYITAN-1 1 40042U 14033AJ 26105.94339201 .00011002 00000+0 36820-3 0 9991 2 40042 98.0999 126.4110 0007425 21.7804 338.3749 15.31145229644061 TIGRISAT 1 40043U 14033AK 26105.92365134 .00001065 00000+0 12909-3 0 9994 2 40043 97.7746 257.4012 0048094 279.0551 80.5223 14.84899696636388 AEROCUBE 6A 1 40045U 14033AM 26106.02494835 .00003615 00000+0 31169-3 0 9991 2 40045 97.7189 273.6863 0037945 221.7819 138.0504 14.97385382637310 AEROCUBE 6B 1 40046U 14033AN 26106.02013249 .00004331 00000+0 35940-3 0 9995 2 40046 97.7180 273.3457 0036426 212.2407 147.6589 14.98804799637441 CANX-4 1 40055U 14034C 26106.13793657 .00000458 00000+0 66228-4 0 9996 2 40055 98.3211 339.1490 0012118 205.4325 154.6291 14.81150951635347 CANX-5 1 40056U 14034D 26106.06952894 .00000463 00000+0 66830-4 0 9994 2 40056 98.3215 339.1179 0012109 205.9361 154.1245 14.81167864626144 UKUBE-1 1 40074U 14037F 26106.26782598 .00005244 00000+0 30500-3 0 9997 2 40074 98.4244 103.0868 0002497 58.3906 301.7565 15.12571408639196 BRITE-PL2 (HEWELIUSZ) 1 40119U 14049B 26106.30636807 .00001163 00000+0 11346-3 0 9999 2 40119 97.9020 217.8659 0013025 318.9098 41.1139 14.94362373632205 AEROCUBE 5C 1 40965U 15058B 26106.27340814 .00001615 00000+0 15396-3 0 9996 2 40965 64.7650 95.1447 0129579 87.5895 274.0045 14.91086244356420 AEROCUBE 7 1 40966U 15058C 26106.17627282 .00002430 00000+0 20556-3 0 9993 2 40966 64.7614 78.9696 0119487 86.4573 275.0198 14.95211877356688 FOX-1A (AO-85) 1 40967U 15058D 26106.30060280 .00001511 00000+0 14735-3 0 9999 2 40967 64.7726 111.2498 0128399 80.8802 280.6811 14.90589429104343 SINOD-D 1 1 40968U 15058E 26106.22836942 .00002461 00000+0 20825-3 0 9999 2 40968 64.7735 92.8635 0116878 77.8422 283.5756 14.95377968107390 SNAP-3 ALICE 1 40970U 15058G 26105.95011653 .00046668 00000+0 82426-3 0 9997 2 40970 64.7550 317.1465 0031710 53.0088 307.3948 15.49522366107210 LMRST-SAT 1 40971U 15058H 26106.10613410 .00001360 00000+0 13486-3 0 9995 2 40971 64.7732 108.0755 0130304 82.9730 278.6180 14.90218508104306 SNAP-3 EDDIE 1 40972U 15058J 26105.98613640 .00046803 00000+0 79534-3 0 9993 2 40972 64.7470 308.1788 0032483 56.9587 303.4667 15.50579247109359 PROPCUBE 3 1 40973U 15058K 26106.22569188 .00002064 00000+0 18218-3 0 9992 2 40973 64.7673 86.0578 0122649 84.5220 276.9869 14.93805654105544 BISONSAT 1 40974U 15058L 26106.13644400 .00008170 00000+0 41561-3 0 9995 2 40974 64.7626 14.0478 0077788 74.6770 286.2934 15.14833301106212 SNAP-3 JIMI 1 40975U 15058M 26106.26633763 .00003666 00000+0 26341-3 0 9994 2 40975 64.7659 55.5811 0104715 80.8701 280.4245 15.01597719104927 PROPCUBE 1 (FLORA) 1 40976U 15058N 26106.27282157 .00001178 00000+0 12337-3 0 9999 2 40976 64.7722 127.0703 0129223 85.1907 276.3946 14.88868892107046 SINOD-D 3 1 40977U 15058P 26106.17932731 .00001939 00000+0 17524-3 0 9997 2 40977 64.7704 109.3747 0117652 82.8498 278.5974 14.93521537105490 HORYU-4 1 41340U 16012D 26106.24066414 .00077002 00000+0 58318-3 0 9997 2 41340 30.9890 163.8219 0006040 148.7282 211.3733 15.70981040561002 RAVAN 1 41849U 16067B 26106.14043172 .00026939 00000+0 49254-3 0 9998 2 41849 97.9972 348.8114 0005094 197.7780 162.3292 15.49345870518079 CELTEE 1 1 41850U 16067C 26105.57574109 .00002931 00000+0 14352-3 0 9992 2 41850 98.0765 327.8736 0002468 92.8642 267.2873 15.19066672516372 OPTICUBE 04 1 41851U 16067D 26106.10047406 .00001099 00000+0 73128-4 0 9999 2 41851 98.0770 315.1318 0015009 332.3059 27.7367 15.09398851515804 AEROCUBE 8D 1 41852U 16067E 26106.17217266 .00004234 00000+0 18066-3 0 9993 2 41852 98.0773 331.6399 0003500 15.9307 344.2038 15.23533813516621 AEROCUBE 8C 1 41853U 16067F 26106.07554882 .00004169 00000+0 17671-3 0 9999 2 41853 98.0644 328.8451 0003883 277.4675 82.6119 15.23766244516600 CORVUS BC2 1 42846U 17042X 26106.00789228 .00002377 00000+0 16739-3 0 9996 2 42846 97.3994 269.8147 0012382 329.5042 30.5464 15.05900417477704 CORVUS BC1 1 42847U 17042Y 26106.20887687 .00002092 00000+0 14718-3 0 9996 2 42847 97.4033 270.7805 0010767 304.2788 55.7419 15.06079670477768 MAKERSAT 0 1 43016U 17073D 26105.42534901 .00011040 00000+0 31895-3 0 9998 2 43016 97.4724 347.5568 0114476 135.3120 225.7416 15.29441705456869 SIRION PATHFINDER-2 1 43759U 18099B 26106.13161110 .00002605 00000+0 14704-3 0 9995 2 43759 97.4318 156.6711 0009851 146.9029 213.2821 15.13976188403233 CORVUS BC4 1 43767U 18099K 26106.12144581 .00002381 00000+0 14232-3 0 9993 2 43767 97.4135 150.9215 0007700 204.6804 155.4059 15.11993207403025 M2 PATHFINDER 1 45727U 20037E 26106.26162001 .00001571 00000+0 11692-3 0 9995 2 45727 97.8173 296.8007 0011659 10.1407 350.0052 15.04409571316189 NETSAT-4 1 46504U 20068U 26105.92510216 .00009718 00000+0 23143-3 0 9995 2 46504 97.8628 109.2633 0006204 162.6811 197.4648 15.41822455306175 NETSAT-3 1 46505U 20068V 26106.27164506 .00010117 00000+0 25102-3 0 9994 2 46505 97.8671 107.9365 0005438 175.8227 184.3064 15.40568286306148 NETSAT-1 1 46506U 20068W 26106.22605224 .00006534 00000+0 20670-3 0 9990 2 46506 97.8753 102.9221 0004062 200.9343 159.1733 15.33151730305806 NETSAT-2 1 46507U 20068X 26105.97460527 .00012934 00000+0 29151-3 0 9991 2 46507 97.8644 109.0126 0003664 179.2509 180.8743 15.43403530306135 GREENCUBE (IO-117) 1 53109U 22080E 26105.92973728 -.00000003 00000+0 00000+0 0 9993 2 53109 70.1490 319.9077 0008855 303.9068 56.0750 6.42583330 88061 SITRO-AIS 5 (KATYS) 1 57176U 23091L 26106.21400413 .00006174 00000+0 22801-3 0 9994 2 57176 97.5113 169.5771 0010375 326.9654 33.0936 15.28071407154875 SITRO-AIS 6 (CHIRKIN) 1 57192U 23091AC 26106.25347546 .00003567 00000+0 14590-3 0 9992 2 57192 97.5119 169.0486 0011015 331.4813 28.5821 15.24962521154848 SITRO-AIS 8 (ANOKHIN) 1 57193U 23091AD 26106.26899533 .00007523 00000+0 25734-3 0 9990 2 57193 97.5107 170.9821 0009454 322.9612 37.0975 15.30513069154971 SITRO-AIS 7 (FARTUSHNIY) 1 57194U 23091AE 26106.24459542 .00003354 00000+0 13849-3 0 9993 2 57194 97.5117 168.8949 0010921 332.5418 27.5241 15.24682354154834 SITRO-AIS 10 (BURDAEV) 1 57199U 23091AK 26106.22200334 .00010157 00000+0 28888-3 0 9997 2 57199 97.5125 175.3848 0005304 294.8322 65.2369 15.36333273155244 SITRO-AIS 9 (SHCHUKIN) 1 57201U 23091AM 26106.23001730 .00009753 00000+0 28131-3 0 9992 2 57201 97.5124 175.1686 0005599 294.8892 65.1769 15.35904930155238 SITRO-AIS 12 (SMIRENNIY) 1 57204U 23091AQ 26106.23203491 .00009821 00000+0 28083-3 0 9995 2 57204 97.5136 175.5998 0005234 287.0149 73.0520 15.36175386155250 SITRO-AIS 11 (SHEFFER) 1 57208U 23091AU 26106.26149707 .00010049 00000+0 28384-3 0 9999 2 57208 97.5133 175.8402 0005161 286.9907 73.0771 15.36553205155273 SITRO-AIS 25 1 59066U 24039R 26106.25773793 .00003687 00000+0 29051-3 0 9995 2 59066 95.3928 192.5480 0146010 183.7452 176.2695 14.92996732115482 SITRO-AIS 26 1 59067U 24039S 26106.31793613 .00003653 00000+0 28920-3 0 9993 2 59067 95.3928 192.4992 0146313 184.0551 175.9502 14.92803626115482 SITRO-AIS 27 1 59068U 24039T 26106.30522807 .00003247 00000+0 25515-3 0 9994 2 59068 95.3928 192.7340 0145464 182.8749 177.1657 14.93205714115507 SITRO-AIS 28 1 59071U 24039U 26106.28410626 .00002505 00000+0 19730-3 0 9998 2 59071 95.3931 192.7636 0145322 182.8107 177.2319 14.93243090115509 GRBBETA 1 60237U 24128C 26106.22149396 .00002120 00000+0 15541-3 0 9999 2 60237 61.9892 73.5868 0047963 121.5936 238.9852 15.06140997 96934 OOV-CUBE (TUBSAT-30) 1 60240U 24128F 26106.23414473 .00001303 00000+0 11105-3 0 9999 2 60240 61.9933 81.5480 0051410 120.2136 240.4060 15.02466852 96805 ROBUSTA-3A (MEDITERRAN*) 1 60243U 24128J 26106.26714457 .00004013 00000+0 24789-3 0 9993 2 60243 61.9860 67.0492 0048707 115.3670 245.2480 15.10706025 97068 LASARSAT 1 62391U 24247Q 26105.10602580 .00020118 00000+0 45848-3 0 9999 2 62391 44.9744 255.6385 0006105 293.9646 66.0603 15.42642686 73566 CROCUBE 1 62394U 24247T 26105.68791669 .00022114 00000+0 47945-3 0 9990 2 62394 44.9724 250.5982 0005703 295.7069 64.3230 15.44073708 73670 FORESAIL-1 PRIME 1 66778U 25276DS 26106.18179380 .00002724 00000+0 13675-3 0 9997 2 66778 97.4226 180.6068 0001752 4.9384 355.1867 15.18132672 20999 KNACKSAT-2 1 67683U 98067XZ 26105.78258983 .00026505 00000+0 39373-3 0 9999 2 67683 51.6306 247.1030 0011498 325.8879 34.1372 15.54923945 10553